Regional Weather Roundup
Issued by NWS

Home | Current Version | Previous Version | Graphics & Text | Print | Product List | Glossary On
Versions: 1 2 3 4 5 6 7 8 9 10 11 12 13 14 15 16 17 18 19 20 21 22 23 24 25 26 27 28 29 30 31 32 33 34 35 36 37 38 39 40 41 42 43 44 45 46 47 48 49 50
000
ASUS43 KMPX 310710
RWRMN
WEATHER ROUNDUP FOR MINNESOTA
NATIONAL WEATHER SERVICE TWIN CITIES/CHANHASSEN MN
200 AM CDT TUE MAY 31 2016


NOTE: "FAIR" INDICATES FEW OR NO CLOUDS BELOW 12,000 FEET WITH NO
SIGNIFICANT WEATHER AND/OR OBSTRUCTIONS TO VISIBILITY. N/A MEANS
CURRENT SKY AND/OR WEATHER CONDITIONS ARE NOT AVAILABLE.

MNZ060>063-068>070-310800-
   Twin Cities Metro

CITY           SKY/WX    TMP DP  RH WIND       PRES   REMARKS
TWIN CITIES    MOCLDY    69  57  65 SE18G26   29.87F
ST PAUL        PTCLDY    69  58  67 SE15      29.87F
CRYSTAL        PTCLDY    70  55  59 SE14G21   29.85R
BLAINE         MOCLDY    72  57  60 SE17      29.86F
EDEN PRAIRIE   CLOUDY    70  56  61 SE13      29.85F
SOUTH ST PAUL  MOCLDY    69  56  63 SE8       29.87F
LAKE ELMO      FAIR      68  57  68 S9        29.90F
$$
MNZ001>005-007-008-013>017-022>024-027-028-310800-
   Northwest Minnesota

CITY           SKY/WX    TMP DP  RH WIND       PRES   REMARKS
BEMIDJI        RAIN      60  55  82 E16       29.82S
HALLOCK        HVY RAIN  61  57  88 E17G23    29.79F
ROSEAU         LGT RAIN  61  52  72 E15       29.86S
WARROAD        CLOUDY    61  54  77 E20       29.88F
THIEF RVR FALL CLOUDY    57  54  88 NE13      29.83F
CROOKSTON      LGT RAIN  57  57 100 E22G31    29.72F
FOSSTON        CLOUDY    61  55  82 SE7G18    29.83R
DETROIT LAKES  RAIN      59  57  94 SE5       29.81F
MOORHEAD       LGT RAIN  61  59  94 SE13      29.73F
PARK RAPIDS    CLOUDY    65  55  70 SE10      29.78F
MAHNOMEN       CLOUDY    62  58  84 SE9       29.79S
$$
MNZ006-009>011-018-025>026-310800-
   North Central Minnesota

CITY           SKY/WX    TMP DP  RH WIND       PRES   REMARKS
BAUDETTE       CLOUDY    58  47  66 E16G25    29.88F
FLAG ISLAND    CLOUDY    57  48  72 E10G22    29.91S
INTL FALLS     CLOUDY    56  47  71 E16G23    29.94F
WASKISH        CLOUDY    61  52  72 E15G23    29.85S
BIG FORK       CLOUDY    61  46  59 E7G17     29.89S
LONGVILLE      LGT RAIN  63  54  72 SE6       29.87R
GRAND RAPIDS   CLOUDY    62  45  53 NE9G21    29.91R
CRANE LAKE     MOCLDY    54  48  82 CALM      30.00F
ORR            CLOUDY    57  46  67 SE6       29.93F
COOK           MOCLDY    55  46  71 E3G16     29.97S
WALKER         RAIN      61  55  82 E8        29.82F
$$
MNZ012-019>021-037-310800-
   Northeast Minnesota

CITY           SKY/WX    TMP DP  RH WIND       PRES   REMARKS
DULUTH         CLOUDY    49  42  77 E28G43    29.99R
ELY            PTCLDY    54  45  71 E12G20    30.01S
HIBBING        PTCLDY    54  45  71 E12G26    29.96R
EVELETH        CLOUDY    52  43  71 E8G22     29.99S
DULUTH HARBOR  CLEAR     48  45  87 NE29G36   30.01R
TWO HARBORS    CLEAR     50  45  81 NE10G21   30.02S
SILVER BAY     CLEAR     46  43  87 NE13G18   30.04S
GRAND MARAIS     N/A     43  40  89 NE6       30.09S
G MARAIS ARPRT CLEAR     46  37  71 NE12      30.08F
$$
MNZ029>031-032-039>041-046>048-054>057-064-310800-
   West Central Minnesota

CITY           SKY/WX    TMP DP  RH WIND       PRES   REMARKS
FERGUS FALLS   CLOUDY    61  61 100 E3        29.78S
WHEATON        LGT RAIN  61  59  94 NE14G20   29.74F
MORRIS         TSTM      61  57  88 NW8       29.81R
ALEXANDRIA     CLOUDY    68  58  70 S15       29.79R
ELBOW LAKE     LGT RAIN  60  59  96 N6        29.81F
WADENA         RAIN      63  55  77 E9        29.78S
GLENWOOD       CLOUDY    66  61  82 S14       29.78F THUNDER
APPLETON       RAIN      63  57  82 N6        29.80F
BENSON         CLOUDY    68  59  73 W24G36    29.81R
ORTONVILLE     LGT RAIN  61  57  88 E8        29.76F
MADISON        HVY RAIN  63  61  94 CALM      29.83R
WILLMAR        LGT RAIN  68  61  77 S9        29.80F
$$
MNZ033>034-036-042>043-049>051-058-059-310800-
   Central Minnesota

CITY           SKY/WX    TMP DP  RH WIND       PRES   REMARKS
ST CLOUD       MOCLDY    68  56  65 SE9       29.82F
SAUK CENTRE    PTSUNNY   66  59  78 S14       29.79S
PAYNESVILLE    LGT RAIN  68  58  68 S13G21    29.82S
AITKIN         MIX PCPN  66  48  52 E3        29.87R
PINE RIVER     LGT RAIN  61  57  88 SE12      29.86F
BRAINERD       TSTM      60  57  89 VRB6      29.84F
STAPLES        CLOUDY    63  54  72 SE8       29.79F
LONG PRAIRIE   CLOUDY    64  57  77 SE8       29.81S
LITTLE FALLS   CLOUDY    64  54  68 E6        29.82F
LITCHFIELD     CLOUDY    70  57  64 S7        29.82F
BUFFALO        CLOUDY    69  55  60 SE8       29.85F
MAPLE LAKE     CLOUDY    69  58  68 SE7       29.85S
HUTCHINSON     CLOUDY    69  58  68 S7        29.84F
$$
MNZ037-044-045-052-053-310800-
   East Central Minnesota

CITY           SKY/WX    TMP DP  RH WIND       PRES   REMARKS
PRINCETON      CLOUDY    66  57  72 E6        29.85F
MORA           CLOUDY    64  54  68 E7        29.87F
CAMBRIDGE      CLOUDY    72  55  56 SE6       29.84F
RUSH CITY      PTCLDY    69  53  58 SE10      29.87F
MOOSE LAKE     PTCLDY    54  45  71 NE9G20    29.92R
HINCKLEY       PTSUNNY   63  54  72 E7        29.89S
CLOQUET        CLOUDY    54  43  66 E17G26    29.96R
MCGREGOR       CLOUDY    61  50  67 E16       29.91R
$$
MNZ071>073-080-081-089-090-097-098-310800-
   Southwest Minnesota

CITY           SKY/WX    TMP DP  RH WIND       PRES   REMARKS
MONTEVIDEO     CLOUDY    64  59  82 NW7       29.86R
GRANITE FALLS  TSTM      65  62  89 S22       29.83R
CANBY          RAIN      66  62  86 CALM      29.82F
MARSHALL       LGT RAIN  64  61  88 S17       29.83R
REDWOOD FALLS  LGT RAIN  65  59  81 S20       29.81F
OLIVIA         LGT RAIN  70  63  78 S14G25    29.81F
PIPESTONE      LGT RAIN  61  57  88 SW5       29.85S
WINDOM         CLOUDY    63  57  82 SE13G22   29.85F
WORTHINGTON    CLOUDY    64  59  83 SE16      29.82F
JACKSON        CLOUDY    63  55  77 SE13      29.86F
TRACY          TSTM      64  62  92 W5G22     29.87R
SLAYTON        TSTM      64  60  86 S12G18    29.88R
$$
MNZ065>067-074>077-082>085-091>093-310800-
   South Central Minnesota

CITY           SKY/WX    TMP DP  RH WIND       PRES   REMARKS
MANKATO        CLOUDY    66  54  63 S8        29.84F
NEW ULM        CLOUDY    66  55  68 S8        29.84S
ST JAMES       CLOUDY    63  52  67 S15       29.85S
FAIRMONT       CLOUDY    66  55  68 S17       29.86S
GLENCOE        CLOUDY    69  59  71 S3        29.83F
FARIBAULT      CLOUDY    66  59  77 SE14G22   29.86F
OWATONNA       CLOUDY    66  57  72 SE14      29.87F
WASECA         CLOUDY    64  54  68 SE8       29.87F
ALBERT LEA     CLOUDY    66  55  68 S7        29.88F
$$
MNZ078>079-086>088-094>096-310800-
   Southeast Minnesota

CITY           SKY/WX    TMP DP  RH WIND       PRES   REMARKS
ROCHESTER      CLOUDY    64  60  87 S12       29.91F
RED WING       CLOUDY    70  55  60 SE14      29.89F
STANTON        CLOUDY    68  57  68 S9G17     29.87F
DODGE CENTER   CLOUDY    66  55  68 SE6       29.89F
WINONA         CLOUDY    70  55  60 S5        29.96F
AUSTIN         DRIZZLE   63  57  82 S8        29.89F
PRESTON        CLOUDY    63  55  73 SE10      29.92F
$$
ABBREVIATIONS USED IN REMARKS
   TC - TEMPERATURES IN CELSIUS
  WCI - WIND CHILL INDEX
   HX - HEAT INDEX
  VSB - VISIBILITY
$$




USA.gov is the U.S. government's official web portal to all federal, state and local government web resources and services.